Louisa, VA

2:45 PM EDT on July 25, 2016 (GMT -0400)
Louisa County-Freeman

Weather History for KLKU - March, 2014

Change the Weather History Date:

Monday, March 24, 2014

  Actual Average (KCHO) Record (KCHO)
Temperature  
Mean Temperature 34 °F 49 °F  
Max Temperature 44 °F 60 °F 87 °F (1928)
Min Temperature 24 °F 37 °F 16 °F (1934)
Degree Days  
Heating Degree Days 31 16  
Month to date heating degree days 484  
Since 1 July heating degree days 3896  
Cooling Degree Days 0 0  
Month to date cooling degree days 0  
Year to date cooling degree days 0  
Moisture  
Dew Point 11 °F    
Average Humidity 42    
Maximum Humidity 55    
Minimum Humidity 23    
Precipitation  
Precipitation 0.00 in 0.13 in 1.51 in (1979)
Month to date precipitation 2.70  
Year to date precipitation 8.17  
Sea Level Pressure  
Sea Level Pressure 30.19 in    
Wind  
Wind Speed 6 mph (NNE)    
Max Wind Speed 13 mph    
Max Gust Speed 17 mph    
Visibility 10 miles    
Events      
T = Trace of Precipitation, MM = Missing Value Source: NWS Daily Summary

Daily Weather History Graph

Daily Weather History Graph

Search for Another Location

Airport or City:

Trip Planner

Search our weather history database for the weather conditions in past years. The results will help you decide how hot, cold, wet, or windy it might be!

Date:

Astronomy

Mar. 24, 2014 Rise Set
Actual Time 7:09 AM EDT 7:27 PM EDT
Civil Twilight 6:42 AM EDT 7:53 PM EDT
Nautical Twilight 6:12 AM EDT 8:24 PM EDT
Astronomical Twilight 5:40 AM EDT 8:56 PM EDT
Moon 2:32 AM EDT (3/24) 12:56 PM EDT (3/24)
Length of Visible Light 13h 10m
Length of Day
12h 18m
Last Quarter, 43% of the Moon is Illuminated
Mar 24
Last Quarter
Mar 30
New
Apr 7
First Quarter
Apr 15
Full
Apr 22
Last Quarter

Hourly Weather History & Observations

Time (EDT) Temp. Windchill Dew Point Humidity Pressure Visibility Wind Dir Wind Speed Gust Speed Precip Events Conditions
12:15 AM 35.6 °F 29.2 °F 19.4 °F 52% 30.15 in 10.0 mi North 8.1 mph - N/A   Clear
12:35 AM 33.8 °F 28.6 °F 17.6 °F 52% 30.16 in 10.0 mi NNE 5.8 mph - N/A   Clear
12:55 AM 33.8 °F 27.7 °F 17.6 °F 52% 30.17 in 10.0 mi North 6.9 mph - N/A   Clear
1:15 AM 33.8 °F 27.7 °F 17.6 °F 52% 30.17 in 10.0 mi North 6.9 mph - N/A   Clear
1:35 AM 32.0 °F 27.5 °F 17.6 °F 55% 30.18 in 10.0 mi North 4.6 mph - N/A   Clear
1:55 AM 30.2 °F 23.4 °F 15.8 °F 55% 30.18 in 10.0 mi North 6.9 mph - N/A   Clear
2:15 AM 30.2 °F 23.4 °F 15.8 °F 55% 30.19 in 10.0 mi North 6.9 mph - N/A   Clear
2:35 AM 30.2 °F 24.3 °F 14.0 °F 51% 30.19 in 10.0 mi ENE 5.8 mph - N/A   Clear
2:55 AM 28.4 °F 22.2 °F 12.2 °F 51% 30.20 in 10.0 mi NE 5.8 mph - N/A   Clear
3:15 AM 28.4 °F 22.2 °F 12.2 °F 51% 30.20 in 10.0 mi North 5.8 mph - N/A   Clear
3:35 AM 28.4 °F 20.4 °F 12.2 °F 51% 30.20 in 10.0 mi North 8.1 mph - N/A   Clear
3:55 AM 28.4 °F 23.3 °F 12.2 °F 51% 30.20 in 10.0 mi North 4.6 mph - N/A   Clear
4:15 AM 28.4 °F 20.4 °F 12.2 °F 51% 30.20 in 10.0 mi North 8.1 mph - N/A   Clear
4:35 AM 28.4 °F 21.2 °F 12.2 °F 51% 30.21 in 10.0 mi North 6.9 mph - N/A   Clear
4:55 AM 28.4 °F 21.2 °F 12.2 °F 51% 30.22 in 10.0 mi NNE 6.9 mph - N/A   Clear
5:15 AM 26.6 °F 21.2 °F 10.4 °F 51% 30.23 in 10.0 mi NNE 4.6 mph - N/A   Clear
5:35 AM 26.6 °F 19.1 °F 10.4 °F 51% 30.23 in 10.0 mi North 6.9 mph - N/A   Clear
5:55 AM 26.6 °F 21.2 °F 10.4 °F 51% 30.24 in 10.0 mi North 4.6 mph - N/A   Clear
6:15 AM 26.6 °F 18.2 °F 10.4 °F 51% 30.24 in 10.0 mi North 8.1 mph - N/A   Clear
6:35 AM 24.8 °F 17.9 °F 10.4 °F 54% 30.26 in 10.0 mi NE 5.8 mph - N/A   Clear
6:55 AM 24.8 °F 17.9 °F 10.4 °F 54% 30.27 in 10.0 mi NNE 5.8 mph - N/A   Clear
7:15 AM 24.8 °F 17.9 °F 10.4 °F 54% 30.28 in 10.0 mi North 5.8 mph - N/A   Clear
7:35 AM 24.8 °F 16.9 °F 10.4 °F 54% 30.28 in 10.0 mi North 6.9 mph - N/A   Clear
7:55 AM 24.8 °F 15.3 °F 10.4 °F 54% 30.29 in 10.0 mi North 9.2 mph - N/A   Clear
8:15 AM 24.8 °F 19.1 °F 8.6 °F 50% 30.30 in 10.0 mi NNE 4.6 mph - N/A   Clear
8:35 AM 26.6 °F 16.8 °F 8.6 °F 47% 30.30 in 10.0 mi NNE 10.4 mph 17.3 mph N/A   Clear
8:55 AM 26.6 °F 15.7 °F 8.6 °F 47% 30.30 in 10.0 mi North 12.7 mph 17.3 mph N/A   Clear
9:15 AM 26.6 °F 18.2 °F 8.6 °F 47% 30.30 in 10.0 mi NNE 8.1 mph - N/A   Clear
9:35 AM 28.4 °F 19.7 °F 10.4 °F 47% 30.30 in 10.0 mi NNE 9.2 mph - N/A   Clear
9:55 AM 28.4 °F 20.4 °F 10.4 °F 47% 30.30 in 10.0 mi North 8.1 mph - N/A   Clear
10:15 AM 28.4 °F 22.2 °F 10.4 °F 47% 30.30 in 10.0 mi North 5.8 mph - N/A   Clear
10:35 AM 30.2 °F 21.9 °F 10.4 °F 44% 30.29 in 10.0 mi North 9.2 mph - N/A   Clear
10:55 AM 30.2 °F 24.3 °F 10.4 °F 44% 30.29 in 10.0 mi NNW 5.8 mph - N/A   Clear
11:15 AM 32.0 °F 26.4 °F 10.4 °F 41% 30.28 in 10.0 mi NNW 5.8 mph - N/A   Clear
11:35 AM 33.8 °F 30.8 °F 10.4 °F 38% 30.27 in 10.0 mi West 3.5 mph - N/A   Clear
11:55 AM 33.8 °F 30.8 °F 8.6 °F 35% 30.26 in 10.0 mi East 3.5 mph - N/A   Clear
12:15 PM 33.8 °F - 10.4 °F 38% 30.25 in 10.0 mi Calm Calm - N/A   Clear
12:35 PM 35.6 °F - 8.6 °F 33% 30.24 in 10.0 mi Calm Calm - N/A   Clear
12:55 PM 35.6 °F 29.2 °F 10.4 °F 35% 30.24 in 10.0 mi North 8.1 mph - N/A   Clear
1:15 PM 37.4 °F - 8.6 °F 30% 30.23 in 10.0 mi Calm Calm - N/A   Clear
1:35 PM 37.4 °F 34.9 °F 8.6 °F 30% 30.22 in 10.0 mi SSE 3.5 mph - N/A   Clear
2:15 PM 39.2 °F 34.2 °F 10.4 °F 31% 30.18 in 10.0 mi North 6.9 mph - N/A   Clear
2:35 PM 39.2 °F 37.0 °F 8.6 °F 28% 30.17 in 10.0 mi ENE 3.5 mph - N/A   Clear
2:55 PM 39.2 °F - 8.6 °F 28% 30.16 in 10.0 mi Calm Calm - N/A   Clear
3:15 PM 42.8 °F 41.1 °F 8.6 °F 25% 30.15 in 10.0 mi West 3.5 mph - N/A   Clear
3:35 PM 42.8 °F 38.6 °F 8.6 °F 25% 30.14 in 10.0 mi West 6.9 mph - N/A   Clear
3:55 PM 42.8 °F 39.3 °F 8.6 °F 25% 30.13 in 10.0 mi NNW 5.8 mph - N/A   Clear
4:15 PM 42.8 °F 40.1 °F 8.6 °F 25% 30.12 in 10.0 mi West 4.6 mph - N/A   Clear
4:35 PM 44.6 °F 40.2 °F 8.6 °F 23% 30.11 in 10.0 mi WSW 8.1 mph - N/A   Clear
4:55 PM 42.8 °F 38.6 °F 8.6 °F 25% 30.11 in 10.0 mi SW 6.9 mph - N/A   Clear
5:15 PM 44.6 °F 40.7 °F 8.6 °F 23% 30.11 in 10.0 mi WSW 6.9 mph - N/A   Clear
5:35 PM 44.6 °F 43.1 °F 8.6 °F 23% 30.11 in 10.0 mi South 3.5 mph - N/A   Clear
5:55 PM 42.8 °F - 8.6 °F 25% 30.11 in 10.0 mi Calm Calm - N/A   Clear
6:15 PM 42.8 °F - 8.6 °F 25% 30.11 in 10.0 mi Calm Calm - N/A   Clear
6:35 PM 42.8 °F 40.1 °F 10.4 °F 27% 30.10 in 10.0 mi ESE 4.6 mph - N/A   Clear
6:55 PM 42.8 °F - 10.4 °F 27% 30.10 in 10.0 mi Calm Calm - N/A   Clear
7:15 PM 39.2 °F 37.0 °F 12.2 °F 33% 30.10 in 10.0 mi East 3.5 mph - N/A   Clear
7:35 PM 35.6 °F 32.8 °F 12.2 °F 38% 30.11 in 10.0 mi East 3.5 mph - N/A   Clear
7:55 PM 30.2 °F 25.4 °F 15.8 °F 55% 30.11 in 10.0 mi East 4.6 mph - N/A   Clear
8:15 PM 33.8 °F 29.6 °F 12.2 °F 41% 30.11 in 10.0 mi East 4.6 mph - N/A   Clear
8:35 PM 33.8 °F 29.6 °F 12.2 °F 41% 30.11 in 10.0 mi East 4.6 mph - N/A   Clear
8:55 PM 32.0 °F 28.7 °F 12.2 °F 44% 30.12 in 10.0 mi East 3.5 mph - N/A   Clear
9:15 PM 33.8 °F 29.6 °F 10.4 °F 38% 30.12 in 10.0 mi East 4.6 mph - N/A   Clear
9:35 PM 33.8 °F 29.6 °F 10.4 °F 38% 30.12 in 10.0 mi East 4.6 mph - N/A   Clear
9:55 PM 30.2 °F 26.7 °F 10.4 °F 44% 30.12 in 10.0 mi East 3.5 mph - N/A   Clear
10:15 PM 30.2 °F 26.7 °F 8.6 °F 40% 30.12 in 10.0 mi East 3.5 mph - N/A   Clear
10:35 PM 28.4 °F 24.6 °F 10.4 °F 47% 30.12 in 10.0 mi East 3.5 mph - N/A   Clear
10:55 PM 30.2 °F 24.3 °F 8.6 °F 40% 30.12 in 10.0 mi East 5.8 mph - N/A   Clear
11:15 PM 32.0 °F 26.4 °F 10.4 °F 41% 30.12 in 10.0 mi East 5.8 mph - N/A   Clear
11:35 PM 30.2 °F 25.4 °F 10.4 °F 44% 30.12 in 10.0 mi East 4.6 mph - N/A   Clear
11:55 PM 30.2 °F 26.7 °F 12.2 °F 47% 30.11 in 10.0 mi East 3.5 mph - N/A   Scattered Clouds